Location: A�t Lahcen
(32.8243°N, 5.4246°W)
Time: 01:55:27
(UTC+00:00)

CENTAUR R/B - Pass Details

Date: 27 January 2021
Orbit: 742 x 1446 km, 63.5° (Epoch: 25 February)

Event Time Altitude Azimuth Distance (km) Brightness Sun altitude
Exits shadow 05:17:13 22° 198° (SSW) 1,746 3.7 -25.8°
Maximum altitude 05:20:55 74° 117° (ESE) 924 2.4 -25.0°
Drops below altitude 10° 05:27:19 10° 34° (NNE) 2,789 5.2 -23.7°
Sets 05:30:09 0° 32° (NNE) 3,856 5.9 -23.1°
